Weather History for Chamberlain, SD

Change the Weather History Date:

Monday, October 7, 2013

  Actual Average Record
Temperature  
Mean Temperature 58 °F -  
Max Temperature 75 °F 65 °F 91 °F (2003)
Min Temperature 42 °F 39 °F 21 °F (2000)
Degree Days  
Heating Degree Days 6    
Growing Degree Days 8 (Base 50)    
Moisture  
Dew Point 41 °F    
Average Humidity 61    
Maximum Humidity 82    
Minimum Humidity 27    
Precipitation  
Precipitation 0.00 in - - ()
Sea Level Pressure  
Sea Level Pressure 29.95 in    
Wind  
Wind Speed 7 mph (WSW)    
Max Wind Speed 12 mph    
Max Gust Speed 20 mph    
Averages and records for this station are not official NWS values.
T = Trace of Precipitation, MM = Missing Value Source: NWS Daily Summary

Daily Weather History Graph

Daily Weather History Graph

Search for Another Location

Airport:

Trip Planner

Search our weather history database for the weather conditions in past years. The results will help you decide how hot, cold, wet, or windy it might be!

Date:

Astronomy

Oct. 07, 2013 Rise Set
Actual Time 7:42 AM CDT 7:07 PM CDT
Civil Twilight 7:13 AM CDT 7:35 PM CDT
Nautical Twilight 6:40 AM CDT 8:08 PM CDT
Astronomical Twilight 6:06 AM CDT 8:42 PM CDT
Moon 10:40 AM CDT (10/7) 8:46 PM CDT (10/7)
Length of Visible Light 12h 22m
Length of Day
11h 24m
Waxing Crescent, 9% of the Moon is Illuminated
Oct 7
Waxing Crescent
Oct 11
First Quarter
Oct 18
Full
Oct 26
Last Quarter
Nov 3
New

Hourly Weather History & Observations

Time (CDT) Temp. Windchill Dew Point Humidity Pressure Visibility Wind Dir Wind Speed Gust Speed Precip Events Conditions
12:52 AM 45.0 °F 40.1 °F 39.0 °F 80% 30.04 in - WNW 9.2 mph - N/A   Unknown
1:52 AM 44.1 °F 41.5 °F 37.9 °F 79% 30.03 in - West 4.6 mph - N/A   Unknown
2:52 AM 43.0 °F 40.3 °F 37.9 °F 82% 30.02 in - SW 4.6 mph - N/A   Unknown
3:52 AM 42.1 °F 38.4 °F 37.0 °F 82% 30.00 in - West 5.8 mph - N/A   Unknown
4:52 AM 42.1 °F 37.7 °F 37.0 °F 82% 30.00 in - WNW 6.9 mph - N/A   Unknown
5:52 AM 43.0 °F 38.2 °F 37.0 °F 80% 29.99 in - WNW 8.1 mph - N/A   Unknown
6:52 AM 43.0 °F 38.2 °F 37.0 °F 80% 30.00 in - West 8.1 mph - N/A   Unknown
7:52 AM 42.1 °F 39.2 °F 37.0 °F 82% 30.01 in - WNW 4.6 mph - N/A   Unknown
8:52 AM 46.9 °F - 39.0 °F 74% 30.01 in - WNW 10.4 mph - N/A   Unknown
9:52 AM 52.0 °F - 39.9 °F 63% 30.02 in - WNW 5.8 mph - N/A   Unknown
10:52 AM 55.0 °F - 41.0 °F 59% 30.02 in - West 8.1 mph - N/A   Unknown
11:52 AM 62.1 °F - 42.1 °F 48% 30.00 in - West 4.6 mph - N/A   Unknown
12:52 PM 66.9 °F - 43.0 °F 42% 29.99 in - SW 4.6 mph - N/A   Unknown
1:52 PM 72.0 °F - 43.0 °F 35% 29.96 in - West 9.2 mph - N/A   Unknown
2:52 PM 73.9 °F - 43.0 °F 33% 29.93 in - West 4.6 mph - N/A   Unknown
3:52 PM 75.0 °F - 41.0 °F 29% 29.91 in - Calm Calm - N/A   Unknown
4:52 PM 75.9 °F - 39.9 °F 27% 29.89 in - South 9.2 mph 19.6 mph N/A   Unknown
5:52 PM 73.9 °F - 44.1 °F 34% 29.86 in - SSE 10.4 mph - N/A   Unknown
6:52 PM 66.0 °F - 45.0 °F 47% 29.87 in - SSE 9.2 mph - N/A   Unknown
7:52 PM 60.1 °F - 46.0 °F 60% 29.87 in - SE 10.4 mph - N/A   Unknown
8:52 PM 57.0 °F - 45.0 °F 64% 29.85 in - SE 11.5 mph - N/A   Unknown
9:52 PM 57.0 °F - 45.0 °F 64% 29.83 in - SSE 10.4 mph - N/A   Unknown
10:52 PM 55.9 °F - 45.0 °F 67% 29.81 in - SE 11.5 mph - N/A   Unknown
11:52 PM 53.1 °F - 45.0 °F 74% 29.78 in - SE 6.9 mph - N/A   Unknown